OPS 5798 DEB, 903

Orbit data source: Space-Track

OPS 5798 DEB, 903 is space debris in LEO originally from a launch on Tue, 06 Oct 1964 UTC launched from the Air Force Western Test Range (AFWTR). Debris objects in space refer to the collection of defunct objects orbiting the Earth. Examples of debris include non-operational satellites, rocket bodies, and fragments generated from explosions, collisions, or faulty payload assembly.

Loading next visibility...
Identifier
903, 1964-063F
Orbit
LEO
Country
Flag of USUS
Related business
Manufacturer
Unknown
Mission
Spacecraft
Bus & Motor
Unknown
Mass
Unknown
Launch date (UTC)
1964-10-06 (61 years ago)
Launch vehicle
Unknown
Launch site
Air Force Western Test Range (AFWTR)
Object type
Payload
Rocket body
Debris
Shape & HBR
Unknown shape, 0.1 m
Radar Cross Section
Small (<0.1 m²)

Expand to show TLE details & history
Last TLE update: 2 days ago

TLE from 2 days ago
0 OPS 5798 DEB
1 00903U 64063F   25305.80407109  .00001084  00000-0  10279-2 0  9999
2 00903  90.2220  65.7389 0023906  83.5116  68.8612 13.80329731 42993
Epoch: 2025-11-01T19:17Z
TLE epoch observation values (Epoch: 2025-11-01T19:17:51.742Z)
Latitude
27.40858°
Longitude
-84.94107°
Altitude
959.87 km
Speed
7.377 km/s
True Right ascension
16h 23m 24s
True Declination
27° 16' 20"
Sunlit
Object was in daylight at epoch
Visualization orbit readout
Latitude
Unknown
Longitude
Unknown
Altitude
Unknown
Speed
Unknown
Apparent Right ascension
Unknown
Apparent Declination
Unknown
Sunlit
N/A
Visualization observer readout
Local Sidereal Time
14:13:23
Azimuth
Unknown
Elevation
Unknown
Doppler factor
Unknown
Orbital elements
Apogee altitude
977.265 km
Perigee altitude
942.181 km
Semi-major axis
7,337.86 km
Eccentricity
0.00239
Inclination
90.222°
RAAN
65.7389°
Arg. of periapsis
83.5116°
True anomaly
69.11698°
Mean anomaly
68.8612°
Eccentric anomaly
68.98906°
Mean motion
3.45294 °/min
Orbital period
104.26 mins
BSTAR
0.0010279
Loading maneuver chart data...
Computing Atmospheric mass density...
Loading historical data...
Loading historical data...
Loading historical data...
Loading historical data...
Loading historical data...
Loading historical data...
Loading historical data...

Documentation

Showing up to 5 results
|